Total_Precipitation_Accumulation
1.26 1.13 1.08 1.27 1.25 1.28 1.32 1.40 1.42 1.31 1.20 1.08 1.04 0.96 0.99 0.92 0.88 0.85 1.08 1.23 1.49 1.95 2.18 2.15 2.09 1.85 1.73 1.66 1.70 1.73 1.76 1.75 1.96 2.37 3.03 3.33 3.01 2.38 2.01 1.79 1.61 1.40 1.42
1.15 1.14 1.01 1.08 1.18 1.32 1.52 1.60 1.46 1.40 1.33 1.28 1.26 1.18 1.13 1.04 0.97 0.86 1.01 1.09 1.04 1.25 1.67 2.17 2.42 2.20 2.01 1.86 1.76 1.78 1.78 1.73 1.83 2.08 2.22 2.42 2.50 2.16 1.75 1.69 1.59 1.41 1.54
0.99 1.10 1.10 1.09 1.12 1.32 1.57 1.75 1.63 1.52 1.36 1.36 1.34 1.32 1.21 1.18 1.08 0.98 1.08 1.21 1.04 0.99 1.31 1.86 2.35 2.46 2.30 2.16 1.96 1.90 1.78 1.67 1.69 1.81 1.95 1.95 2.05 1.99 1.69 1.56 1.51 1.44 1.45
0.99 1.12 1.18 1.14 1.13 1.32 1.57 1.80 1.87 1.84 1.73 1.63 1.53 1.44 1.37 1.46 1.30 1.17 1.19 1.28 1.38 1.23 1.22 1.43 1.82 2.19 2.34 2.37 2.11 1.86 1.70 1.58 1.55 1.58 1.69 1.58 1.65 1.73 1.56 1.42 1.48 1.56 1.55
1.03 1.15 1.33 1.36 1.35 1.46 1.57 1.62 1.75 1.76 1.80 1.79 1.60 1.55 1.47 1.57 1.59 1.45 1.50 1.52 1.56 1.53 1.38 1.21 1.33 1.51 1.92 2.24 2.24 2.03 1.86 1.67 1.55 1.48 1.57 1.44 1.41 1.48 1.35 1.33 1.43 1.55 1.55
1.25 1.21 1.35 1.36 1.41 1.60 1.67 1.79 2.00 1.93 1.82 1.91 1.73 1.63 1.59 1.58 1.56 1.66 1.75 1.71 1.66 1.55 1.54 1.35 1.39 1.29 1.51 1.86 2.00 2.02 1.92 1.90 1.84 1.68 1.65 1.49 1.31 1.32 1.33 1.29 1.33 1.42 1.50
1.36 1.37 1.38 1.40 1.44 1.53 1.60 1.79 2.15 2.17 1.98 1.87 2.06 2.04 1.94 1.74 1.65 1.68 1.71 1.81 1.81 1.65 1.63 1.65 1.53 1.36 1.25 1.37 1.47 1.68 1.77 2.02 2.12 1.98 1.85 1.63 1.36 1.34 1.41 1.26 1.31 1.36 1.33
1.33 1.25 1.41 1.51 1.48 1.62 1.70 1.88 2.17 2.38 2.14 1.95 2.29 2.75 2.52 2.22 1.88 1.66 1.64 1.57 1.69 1.70 1.58 1.45 1.38 1.31 1.21 1.23 1.04 1.19 1.46 1.93 2.34 2.22 1.93 1.78 1.57 1.47 1.50 1.36 1.34 1.34 1.31
1.58 1.51 1.59 1.72 1.64 1.69 1.80 1.85 1.94 2.37 2.51 2.26 2.22 2.80 2.69 2.48 2.43 1.91 1.52 1.37 1.55 1.67 1.67 1.53 1.42 1.43 1.37 1.32 1.13 0.96 1.13 1.51 2.09 2.21 2.02 1.98 1.87 1.71 1.57 1.45 1.38 1.36 1.43
1.79 1.67 1.68 1.74 1.74 1.81 1.79 1.67 1.83 2.25 2.71 2.73 2.50 2.31 2.19 2.18 2.37 2.24 1.67 1.40 1.47 1.58 1.73 1.60 1.53 1.55 1.53 1.53 1.45 1.16 0.98 1.11 1.61 2.16 2.33 2.32 2.23 2.01 1.81 1.66 1.52 1.49 1.50
1.80 1.65 1.59 1.67 1.73 1.81 1.81 1.87 2.06 2.35 2.63 2.88 2.84 2.58 2.28 2.05 1.71 1.90 1.89 1.68 1.45 1.37 1.43 1.51 1.61 1.61 1.57 1.54 1.61 1.45 1.09 0.92 1.17 1.72 2.21 2.38 2.32 2.25 2.15 2.08 2.02 2.00 1.85
1.65 1.58 1.55 1.54 1.51 1.58 1.68 1.88 2.14 2.28 2.46 2.69 2.75 2.48 2.29 2.17 1.97 1.82 1.68 1.74 1.72 1.44 1.31 1.28 1.37 1.50 1.50 1.50 1.36 1.44 1.22 0.94 0.90 1.08 1.42 1.86 2.06 2.19 2.25 2.28 2.24 2.16 2.12
1.43 1.44 1.45 1.41 1.32 1.31 1.43 1.64 1.90 1.96 2.07 2.30 2.39 2.28 2.14 1.97 1.93 1.97 1.92 1.83 1.70 1.44 1.31 1.14 1.19 1.32 1.32 1.38 1.43 1.44 1.21 1.07 0.89 0.85 0.90 1.07 1.39 1.77 2.10 2.31 2.38 2.35 2.31
1.25 1.17 1.19 1.22 1.20 1.19 1.23 1.37 1.53 1.57 1.66 1.88 1.94 1.99 1.89 1.83 1.86 1.85 1.88 2.01 1.88 1.64 1.31 1.01 1.03 1.17 1.13 1.17 1.37 1.40 1.05 1.01 0.90 0.82 0.77 0.78 0.85 1.12 1.52 1.78 2.01 2.22 2.27
1.02 0.98 1.03 1.14 1.20 1.14 1.10 1.20 1.34 1.36 1.47 1.64 1.77 1.89 1.82 1.76 1.77 1.81 1.88 1.95 1.96 1.82 1.55 1.14 0.99 0.94 0.97 1.05 1.34 1.18 1.03 1.02 0.91 0.84 0.75 0.67 0.64 0.66 0.82 1.02 1.28 1.51 1.65
0.94 0.94 0.96 0.96 0.99 0.99 1.03 1.17 1.32 1.39 1.42 1.49 1.58 1.69 1.80 1.83 1.85 1.84 1.89 1.90 1.86 1.83 1.71 1.31 1.06 0.90 0.96 0.93 1.15 0.96 1.06 1.23 1.01 0.83 0.74 0.68 0.64 0.63 0.62 0.71 0.79 0.85 0.89
0.74 0.75 0.71 0.75 0.88 0.89 0.89 1.04 1.12 1.14 1.27 1.36 1.37 1.41 1.57 1.70 1.81 1.84 1.83 1.82 1.87 1.82 1.70 1.47 1.15 0.97 1.05 1.07 1.13 0.99 0.98 1.03 0.94 0.90 0.81 0.72 0.64 0.62 0.59 0.62 0.63 0.59 0.61
0.50 0.55 0.59 0.58 0.77 0.94 0.97 1.00 1.01 0.99 1.10 1.20 1.23 1.30 1.36 1.37 1.46 1.60 1.71 1.69 1.78 1.82 1.78 1.67 1.38 1.14 1.12 1.19 1.33 1.33 1.22 1.15 1.11 1.20 1.14 0.95 0.79 0.71 0.67 0.64 0.62 0.58 0.54
0.41 0.44 0.55 0.55 0.61 0.77 0.88 0.89 0.88 0.91 0.97 1.03 1.07 1.13 1.16 1.23 1.34 1.36 1.43 1.52 1.61 1.66 1.75 1.69 1.59 1.46 1.30 1.24 1.30 1.29 1.35 1.49 1.44 1.42 1.45 1.27 1.04 0.89 0.79 0.75 0.70 0.64 0.59
0.45 0.41 0.40 0.43 0.51 0.60 0.72 0.75 0.76 0.79 0.82 0.83 0.94 1.02 1.07 1.10 1.20 1.27 1.28 1.40 1.52 1.61 1.63 1.60 1.54 1.47 1.41 1.39 1.39 1.36 1.42 1.56 1.64 1.53 1.49 1.40 1.31 1.18 1.02 0.90 0.79 0.72 0.68
0.28 0.29 0.26 0.28 0.33 0.42 0.48 0.51 0.59 0.66 0.73 0.76 0.87 0.89 0.92 0.87 0.91 0.98 0.98 1.15 1.31 1.50 1.57 1.60 1.50 1.39 1.34 1.36 1.35 1.36 1.43 1.59 1.62 1.67 1.68 1.54 1.40 1.22 1.10 1.01 0.89 0.82 0.77
0.15 0.19 0.20 0.23 0.27 0.28 0.36 0.36 0.39 0.52 0.63 0.69 0.75 0.78 0.84 0.86 0.81 0.77 0.76 0.84 0.97 1.10 1.28 1.41 1.44 1.37 1.30 1.27 1.36 1.47 1.48 1.57 1.66 1.60 1.52 1.60 1.53 1.41 1.24 1.05 1.05 1.03 0.92
0.13 0.14 0.17 0.22 0.24 0.21 0.23 0.22 0.33 0.54 0.58 0.59 0.58 0.71 0.82 0.87 0.89 0.92 0.80 0.79 0.80 0.84 0.93 1.11 1.24 1.25 1.23 1.25 1.32 1.41 1.49 1.53 1.45 1.49 1.45 1.54 1.54 1.43 1.26 1.19 1.24 1.10 1.02
0.12 0.16 0.18 0.23 0.21 0.15 0.16 0.19 0.27 0.43 0.51 0.49 0.51 0.62 0.77 0.87 0.90 0.92 0.88 0.95 0.92 0.81 0.78 0.85 1.04 1.12 1.12 1.25 1.39 1.50 1.61 1.60 1.54 1.53 1.46 1.48 1.43 1.30 1.19 1.18 1.26 1.13 1.03
0.12 0.15 0.20 0.20 0.17 0.13 0.13 0.18 0.26 0.42 0.49 0.49 0.47 0.55 0.71 0.80 0.89 0.90 0.88 0.99 0.99 0.81 0.73 0.83 0.88 0.94 1.02 1.15 1.34 1.49 1.58 1.60 1.57 1.54 1.39 1.26 1.20 1.25 1.25 1.18 1.16 1.15 1.03
0.13 0.14 0.17 0.17 0.16 0.17 0.16 0.15 0.22 0.32 0.40 0.48 0.48 0.53 0.72 0.79 0.82 0.78 0.81 1.02 1.10 0.96 0.72 0.71 0.78 0.91 0.99 1.12 1.35 1.49 1.72 1.73 1.54 1.49 1.38 1.25 1.23 1.32 1.45 1.34 1.15 1.05 0.98